CZ-8 R/B, 65314

Orbit data source: Space-Track

CZ-8 R/B, 65314 is space debris in LEO originally from a launch on Mon, 25 Aug 2025 UTC launched from the Wenchang Satellite Launch Center (WSC). Debris objects in space refer to the collection of defunct objects orbiting the Earth. Examples of debris include non-operational satellites, rocket bodies, and fragments generated from explosions, collisions, or faulty payload assembly.

Loading next visibility...
Identifier
65314, 2025-187K
Orbit
LEO
Country
Flag of CNCN / PRC
Related business
Manufacturer
CALT
Mission
Spacecraft
Bus & Motor
CZ-8A STAGE 2, Unknown motor
Mass
~2,800 kg wet, ~2,800 kg dry
Launch date (UTC)
2025-08-25 (10 months ago)
Launch vehicle
Unknown
Launch site
Wenchang Satellite Launch Center (WSC)
Object type
Payload
Rocket body
Debris
Shape & HBR
Cyl, 8.0 m
Radar Cross Section
36.967 m², Large (>1 m²)

Expand to show TLE details & history
Last TLE update: 11 hours ago

TLE from 11 hours ago
0 CZ-8 R/B
1 65314U 25187K   26171.40075490  .00000072  00000-0  84364-4 0  9996
2 65314  50.0088  20.1628 0116418  55.5408 305.6443 14.30669588 42752
Epoch: 2026-06-20T09:37Z
TLE epoch observation values (Epoch: 2026-06-20T09:37:05.223Z)
Latitude
-0.00003°
Longitude
-32.7249°
Altitude
742.048 km
Speed
7.51 km/s
True Right ascension
01h 20m 39s
True Declination
0° 00' 00"
Sunlit
Object was in daylight at epoch
Visualization orbit readout
Latitude
Unknown
Longitude
Unknown
Altitude
Unknown
Speed
Unknown
Apparent Right ascension
Unknown
Apparent Declination
Unknown
Sunlit
N/A
Visualization observer readout
Local Sidereal Time
07:21:10
Azimuth
Unknown
Elevation
Unknown
Doppler factor
Unknown
Orbital elements
Apogee altitude
873.685 km
Perigee altitude
706.78 km
Semi-major axis
7,168.37 km
Eccentricity
0.01164
Inclination
50.0088°
RAAN
20.1628°
Arg. of periapsis
55.5408°
True anomaly
304.55098°
Mean anomaly
305.6443°
Eccentric anomaly
305.09856°
Mean motion
3.57612 °/min
Orbital period
100.67 mins
BSTAR
0.000084364
Loading maneuver chart data...
Computing Atmospheric mass density...
Loading historical data...
Loading historical data...
Loading historical data...
Loading historical data...
Loading historical data...
Loading historical data...
Loading historical data...

Documentation

Showing up to 5 results
|